Weather History for Augusta Bush, GA

Change the Weather History Date:

Monday, March 17, 2014

  Actual Average Record
Temperature  
Mean Temperature 49 °F 56 °F  
Max Temperature 59 °F 70 °F 90 °F (1945)
Min Temperature 38 °F 42 °F 25 °F (1970)
Degree Days  
Heating Degree Days 16 9  
Month to date heating degree days 237 188  
Since 1 July heating degree days 2399 2220  
Cooling Degree Days 0 1  
Month to date cooling degree days 0 3  
Year to date cooling degree days 2 6  
Moisture  
Dew Point 43 °F    
Average Humidity 91    
Maximum Humidity 96    
Minimum Humidity 85    
Precipitation  
Precipitation 0.14 in 0.13 in 1.96 in (1920)
Month to date precipitation 2.12 2.42  
Year to date precipitation 8.33 10.25  
Sea Level Pressure  
Sea Level Pressure 29.80 in    
Wind  
Wind Speed 8 mph (NE)    
Max Wind Speed 16 mph    
Max Gust Speed 20 mph    
Visibility 6 miles    
Events Rain    
T = Trace of Precipitation, MM = Missing Value Source: NWS Daily Summary

Daily Weather History Graph

Daily Weather History Graph

Search for Another Location

Airport:

Trip Planner

Search our weather history database for the weather conditions in past years. The results will help you decide how hot, cold, wet, or windy it might be!

Date:

Astronomy

Mar. 17, 2014 Rise Set
Actual Time 7:35 AM EDT 7:37 PM EDT
Civil Twilight 7:10 AM EDT 8:01 PM EDT
Nautical Twilight 6:42 AM EDT 8:30 PM EDT
Astronomical Twilight 6:12 AM EDT 8:59 PM EDT
Moon 8:47 PM EDT (3/17) 7:54 AM EDT (3/17)
Length of Visible Light 12h 51m
Length of Day
12h 01m
Full, 99% of the Moon is Illuminated
Mar 17
Full
Mar 23
Last Quarter
Mar 30
New
Apr 7
First Quarter
Apr 15
Full

Hourly Weather History & Observations

Time (EDT) Temp. Windchill Dew Point Humidity Pressure Visibility Wind Dir Wind Speed Gust Speed Precip Events Conditions
12:53 AM 59.0 °F - 55.9 °F 90% 29.73 in 10.0 mi Variable 4.6 mph - N/A   Mostly Cloudy
1:03 AM 59.0 °F - 55.0 °F 87% 29.73 in 10.0 mi WSW 3.5 mph - N/A   Partly Cloudy
1:53 AM 55.9 °F - 54.0 °F 93% 29.72 in 10.0 mi Calm Calm - N/A   Partly Cloudy
2:39 AM 57.0 °F - 54.0 °F 89% 29.71 in 10.0 mi Calm Calm - N/A   Mostly Cloudy
2:53 AM 55.9 °F - 54.0 °F 93% 29.70 in 10.0 mi Calm Calm - N/A   Mostly Cloudy
3:32 AM 55.9 °F - 55.0 °F 97% 29.70 in 10.0 mi WNW 3.5 mph - N/A   Overcast
3:53 AM 57.0 °F - 55.0 °F 93% 29.70 in 10.0 mi NW 3.5 mph - N/A   Overcast
4:06 AM 57.0 °F - 55.0 °F 93% 29.69 in 10.0 mi Calm Calm - N/A   Overcast
4:53 AM 57.0 °F - 55.0 °F 93% 29.69 in 10.0 mi Calm Calm - N/A   Overcast
5:17 AM 55.9 °F - 53.1 °F 90% 29.68 in 10.0 mi North 10.4 mph - N/A   Overcast
5:26 AM 54.0 °F - 51.1 °F 90% 29.66 in 9.0 mi NNE 12.7 mph - 0.00 in Rain Light Rain
5:53 AM 52.0 °F - 48.9 °F 89% 29.72 in 5.0 mi North 12.7 mph - 0.00 in Rain Light Rain
6:53 AM 48.9 °F - 46.9 °F 93% 29.74 in 3.0 mi North 6.9 mph - 0.00 in   Overcast
7:53 AM 48.9 °F - 46.9 °F 93% 29.71 in 5.0 mi NE 5.8 mph - 0.01 in   Overcast
8:53 AM 50.0 °F - 46.9 °F 89% 29.75 in 7.0 mi NNE 9.2 mph - N/A   Overcast
9:53 AM 46.9 °F - 44.1 °F 90% 29.78 in 10.0 mi NNE 11.5 mph - N/A   Overcast
10:44 AM 46.0 °F 41.0 °F 43.0 °F 89% 29.81 in 2.0 mi NE 10.4 mph - 0.00 in Rain Light Rain
10:53 AM 46.0 °F 41.4 °F 43.0 °F 89% 29.81 in 2.5 mi ENE 9.2 mph - 0.00 in   Overcast
11:28 AM 45.0 °F 40.1 °F 42.1 °F 90% 29.82 in 3.0 mi ENE 9.2 mph - N/A   Overcast
11:53 AM 45.0 °F 41.2 °F 42.1 °F 90% 29.80 in 3.0 mi East 6.9 mph - N/A   Overcast
12:53 PM 45.0 °F 40.6 °F 42.1 °F 90% 29.82 in 2.5 mi NE 8.1 mph - N/A   Overcast
1:53 PM 44.1 °F 38.6 °F 41.0 °F 89% 29.80 in 2.5 mi NNE 10.4 mph - N/A   Overcast
2:32 PM 43.0 °F 37.2 °F 39.9 °F 89% 29.80 in 1.8 mi NE 10.4 mph - 0.00 in Rain Light Rain
2:53 PM 43.0 °F 37.7 °F 39.9 °F 89% 29.80 in 2.0 mi NE 9.2 mph - 0.01 in Rain Light Rain
3:53 PM 43.0 °F 38.2 °F 41.0 °F 93% 29.77 in 2.0 mi NE 8.1 mph - 0.03 in Rain Light Rain
4:17 PM 43.0 °F 38.8 °F 39.9 °F 89% 29.79 in 2.0 mi NE 6.9 mph - 0.00 in Rain Light Rain
4:53 PM 43.0 °F 37.7 °F 39.9 °F 89% 29.78 in 2.0 mi NE 9.2 mph - 0.00 in Rain Light Rain
5:08 PM 42.1 °F 35.7 °F 39.9 °F 92% 29.78 in 1.8 mi NE 11.5 mph - 0.01 in   Overcast
5:10 PM 42.1 °F 35.2 °F 39.9 °F 92% 29.77 in 2.0 mi NE 12.7 mph - 0.01 in   Overcast
5:32 PM 42.1 °F 37.1 °F 39.0 °F 89% 29.79 in 3.0 mi ENE 8.1 mph - 0.01 in Rain Light Rain
5:37 PM 42.1 °F 35.7 °F 39.0 °F 89% 29.79 in 2.0 mi ENE 11.5 mph - 0.01 in Rain Light Rain
5:50 PM 42.8 °F 37.0 °F 39.2 °F 87% 29.78 in 2.0 mi East 10.4 mph - 0.03 in Rain Rain
5:53 PM 42.1 °F 36.1 °F 39.0 °F 89% 29.78 in 2.0 mi East 10.4 mph - 0.03 in Rain Rain
6:53 PM 41.0 °F 34.7 °F 37.9 °F 89% 29.82 in 2.0 mi NE 10.4 mph - 0.03 in   Overcast
7:00 PM 41.0 °F 34.7 °F 37.9 °F 89% 29.82 in 8.0 mi NE 10.4 mph - N/A   Overcast
7:28 PM 41.0 °F 35.8 °F 37.9 °F 89% 29.83 in 10.0 mi ENE 8.1 mph - N/A   Overcast
7:43 PM 41.0 °F 34.3 °F 37.9 °F 89% 29.82 in 10.0 mi NE 11.5 mph - N/A   Overcast
7:53 PM 41.0 °F 33.9 °F 37.0 °F 86% 29.83 in 10.0 mi ENE 12.7 mph - N/A   Overcast
8:01 PM 41.0 °F 35.8 °F 37.0 °F 86% 29.83 in 10.0 mi ENE 8.1 mph - 0.00 in Rain Light Rain
8:11 PM 41.0 °F 35.2 °F 37.0 °F 86% 29.83 in 10.0 mi ENE 9.2 mph - 0.00 in Rain Light Rain
8:50 PM 41.0 °F 35.2 °F 37.4 °F 87% 29.85 in 10.0 mi NE 9.2 mph - 0.00 in   Overcast
8:53 PM 41.0 °F 34.3 °F 37.0 °F 86% 29.85 in 10.0 mi NNE 11.5 mph - 0.00 in   Overcast
9:42 PM 39.9 °F 33.9 °F 37.0 °F 89% 29.88 in 4.0 mi NE 9.2 mph - 0.00 in Rain Light Rain
9:53 PM 39.9 °F 33.9 °F 37.0 °F 89% 29.89 in 2.0 mi NE 9.2 mph - 0.01 in Rain Light Rain
9:59 PM 39.9 °F 34.5 °F 37.0 °F 89% 29.89 in 3.0 mi NE 8.1 mph - 0.00 in Rain Light Rain
10:15 PM 39.0 °F 32.8 °F 36.0 °F 89% 29.89 in 6.0 mi NE 9.2 mph - 0.01 in Rain Light Rain
10:22 PM 39.0 °F 33.4 °F 37.0 °F 93% 29.89 in 5.0 mi NE 8.1 mph - 0.01 in Rain Light Rain
10:29 PM 39.0 °F 34.0 °F 37.0 °F 93% 29.90 in 2.5 mi NE 6.9 mph - 0.01 in Rain Light Rain
10:36 PM 39.0 °F 31.0 °F 36.0 °F 89% 29.90 in 3.0 mi NE 13.8 mph - 0.02 in Rain Light Rain
10:51 PM 39.2 °F 32.0 °F 35.6 °F 87% 29.90 in 4.0 mi NE 11.5 mph - 0.02 in Rain Light Rain
10:53 PM 39.0 °F 32.3 °F 36.0 °F 89% 29.90 in 5.0 mi NE 10.4 mph - 0.02 in Rain Light Rain
11:01 PM 39.0 °F 32.3 °F 36.0 °F 89% 29.90 in 7.0 mi NNE 10.4 mph - 0.00 in   Overcast
11:51 PM 39.2 °F 32.0 °F 35.6 °F 87% 29.89 in 10.0 mi NE 11.5 mph - 0.00 in   Overcast
11:53 PM 39.0 °F 31.4 °F 35.1 °F 86% 29.89 in 10.0 mi ENE 12.7 mph - 0.00 in   Overcast